Regional Weather Roundup
Issued by NWS Little Rock, AR

Home | Current Version | Previous Version | Graphics & Text | Print | Product List | Glossary On
Versions: 1 2 3 4 5 6 7 8 9 10 11 12 13 14 15 16 17 18 19 20 21 22 23 24 25 26 27 28 29 30 31 32 33 34 35 36 37 38 39 40 41 42 43 44 45 46 47 48 49 50
293
ASUS44 KLZK 022105
RWRLZK

WEATHER ROUNDUP FOR ARKANSAS
NATIONAL WEATHER SERVICE LITTLE ROCK AR
400 PM CDT MON MAY 02 2016

NOTE: "FAIR" INDICATES FEW OR NO CLOUDS BELOW 12,000 FEET WITH NO
SIGNIFICANT WEATHER AND/OR OBSTRUCTIONS TO VISIBILITY.

ARZ001-003-010-029-022200-
NORTHWEST ARKANSAS

CITY           SKY/WX    TMP DP  RH WIND       PRES   REMARKS
FAYETTEVILLE   CLOUDY    55  48  77 N9        30.07F
FORT SMITH     CLOUDY    61  47  59 NW13      30.06S
HARRISON       CLOUDY    55  47  74 N9        30.05F
BENTONVILLE    PTSUNNY   55  43  62 NW10G16   30.09S
ROGERS         CLOUDY    56  46  69 W12       30.08F
SILOAM SPGS    CLOUDY    55  41  58 NW10      30.09F
HIGHFILL       CLOUDY    57  47  69 NW12      30.08F
SPRINGDALE     CLOUDY    55  46  71 NW12      30.09F
$$

ARZ004-005-016-022200-
NORTH CENTRAL ARKANSAS

CITY           SKY/WX    TMP DP  RH WIND       PRES   REMARKS
BATESVILLE     CLOUDY    66  50  55 W7        30.01F
FLIPPIN        CLOUDY   N/A N/A N/A N9        30.01F
MTN HOME       CLOUDY    60  47  61 N6        30.03F
$$

ARZ040-041-022200-
WEST CENTRAL ARKANSAS

CITY           SKY/WX    TMP DP  RH WIND       PRES   REMARKS
MENA           CLOUDY    63  54  72 W7        30.05F
MOUNT IDA      CLOUDY    65  53  65 N7        30.00F
$$

ARZ009-017-025-026-028-022200-
NORTHEAST ARKANSAS

CITY           SKY/WX    TMP DP  RH WIND       PRES   REMARKS
CORNING          N/A     66  54  63 W8        29.99F
JONESBORO      PTSUNNY   66  53  63 W8        29.98F
NEWPORT        CLOUDY    67  53  60 NW6       30.00F
WALNUT RIDGE   CLOUDY    66  50  55 W7        29.99F
BLYTHEVILLE    CLOUDY    66  54  65 NW5       29.98F
$$

ARZ022-023-033-042-044-022200-
CENTRAL ARKANSAS

CITY           SKY/WX    TMP DP  RH WIND       PRES   REMARKS
LITTLE ROCK    CLOUDY    68  53  58 W9        30.00F
N LITTLE ROCK    N/A     65  54  67 N5        29.99F
SEARCY         CLOUDY    67  54  63 NW5       30.01F
HOT SPRINGS    CLOUDY    68  53  58 VRB5      30.01F
RUSSELLVILLE   CLOUDY    64  51  62 NW8       30.02F
$$

ARZ036-022200-
EAST ARKANSAS

CITY           SKY/WX    TMP DP  RH WIND       PRES   REMARKS
WEST MEMPHIS   CLOUDY    64  58  80 N8        29.96F
$$

ARZ050-053-066-070-073-022200-
SOUTHWEST ARKANSAS

CITY           SKY/WX    TMP DP  RH WIND       PRES   REMARKS
ARKADELPHIA    FAIR      67  60  78 VRB3      30.03F
CAMDEN         PTSUNNY   68  55  64 W6        30.01F
TEXARKANA      CLOUDY    66  55  67 CALM      30.03F
EL DORADO      CLOUDY    64  58  80 CALM      30.02F
DE QUEEN       CLOUDY    64  56  75 CALM      30.02F
$$

ARZ056-057-069-022200-
SOUTHEAST ARKANSAS

CITY           SKY/WX    TMP DP  RH WIND       PRES   REMARKS
PINE BLUFF     PTSUNNY   65  57  75 NW5       29.98F
STUTTGART      CLOUDY    64  55  72 NW10      29.99F
MONTICELLO     CLOUDY    63  59  87 NW5       29.99F

$$






USA.gov is the U.S. government's official web portal to all federal, state and local government web resources and services.